Location: Huesca
(42.1318°N, 0.4078°W)
Time: 17:55:15
(UTC+02:00)

ACS3 Solar Sail - Pass Details

Date: 19 June 2024
Orbit: 992 x 1023 km, 97.4° (Epoch: 12 July)

Event Time Altitude Azimuth Distance (km) Brightness Sun altitude
Exits shadow 00:27:10 18° 210° (SSW) 2,221 6.3 -20.8°
Maximum altitude 00:31:07 36° 265° (W) 1,528 5.9 -21.1°
Drops below altitude 10° 00:36:48 10° 331° (NNW) 2,769 8.3 -21.5°
Sets 00:39:31 0° 340° (NNW) 3,720 9.4 -21.7°
